Location: Cahas Mountain Overlook
(37.0833°N, 80.1000°W)
Time: 04:30:44
(UTC-05:00)

deb Explorer IX - Visible Passes

Search period start: 05 December 2023 00:00
Search period end: 15 December 2023 00:00
Orbit: 524 x 935 km, 38.8° (Epoch: 05 December)

Date Brightness Start Highest point End Pass type
(mag) Time Alt. Az. Time Alt. Az. Time Alt. Az.
06 Dec ? 19:36:37 10° SSW 19:36:50 11° SSW 19:36:50 11° SSW visible
07 Dec ? 18:45:36 10° S 18:47:49 17° SSE 18:47:49 17° SSE visible
08 Dec ? 17:55:26 10° SSE 17:56:28 11° SE 17:57:29 10° SE visible
08 Dec ? 19:36:42 10° SW 19:38:03 20° SW 19:38:03 20° SW visible
09 Dec ? 18:45:01 10° SW 18:48:39 34° SSE 18:48:51 33° SSE visible
10 Dec ? 17:53:28 10° SSW 17:56:46 24° SSE 17:59:34 12° E visible
10 Dec ? 19:37:06 10° WSW 19:38:54 25° WSW 19:38:54 25° WSW visible
11 Dec ? 18:45:03 10° WSW 18:49:03 63° SSE 18:49:32 57° ESE visible
12 Dec ? 17:53:01 10° SW 17:57:00 46° SSE 18:00:06 15° E visible
12 Dec ? 19:37:33 10° W 19:39:25 26° W 19:39:25 26° W visible
13 Dec ? 18:45:17 10° W 18:49:23 85° NNW 18:49:55 66° ENE visible
14 Dec ? 17:52:56 10° WSW 17:57:10 79° SSE 18:00:22 15° ENE visible
14 Dec ? 19:37:52 10° W 19:39:41 25° WNW 19:39:41 25° WNW visible
